Location: ??????????
(42.1626°N, 44.1160°E)
Time: 15:27:03
(UTC+00:00)

Cosmos 1844 - Pass Details

Date: 26 June 2021
Orbit: 823 x 867 km, 70.9° (Epoch: 01 August)

Event Time Altitude Azimuth Distance (km) Brightness Sun altitude
Rises 17:19:10 0° 332° (NNW) 3,374 8.3 -6.1°
Reaches altitude 10° 17:21:37 10° 329° (NNW) 2,441 7.5 -6.5°
Maximum altitude 17:27:08 63° 250° (WSW) 930 4.1 -7.2°
Drops below altitude 10° 17:32:40 10° 170° (S) 2,451 5.7 -8.0°
Enters shadow 17:34:15 - 168° (SSE) 3,054 6.1 -8.2°
